Year,Month,Day,Hour,Minute,Value (Times are PST for temperature in C)
2006,09,24,00,00,10.30
2006,09,24,00,01,10.30
2006,09,24,00,02,10.20
2006,09,24,00,03,10.20
2006,09,24,00,04,10.20
2006,09,24,00,05,10.20
2006,09,24,00,06,10.20
2006,09,24,00,07,10.20
2006,09,24,00,08,10.20
2006,09,24,00,09,10.20
2006,09,24,00,10,10.10
2006,09,24,00,11,10.10
2006,09,24,00,12,10.10
2006,09,24,00,13,10.10
2006,09,24,00,14,10.10
2006,09,24,00,15,10.10
2006,09,24,00,16,10.10
2006,09,24,00,17,10.10
2006,09,24,00,18,10.10
2006,09,24,00,19,10.10
2006,09,24,00,20,10.00
2006,09,24,00,21,9.90
2006,09,24,00,22,9.90
2006,09,24,00,23,9.90
2006,09,24,00,24,9.90
2006,09,24,00,25,9.90
2006,09,24,00,26,9.90
2006,09,24,00,27,9.90
2006,09,24,00,28,9.90
2006,09,24,00,29,9.90
2006,09,24,00,30,9.90
2006,09,24,00,31,9.90
2006,09,24,00,32,9.80
2006,09,24,00,33,9.80
2006,09,24,00,34,9.70
2006,09,24,00,35,9.70
2006,09,24,00,36,9.70
2006,09,24,00,37,9.70
2006,09,24,00,38,9.70
2006,09,24,00,39,9.70
2006,09,24,00,40,9.70
2006,09,24,00,41,9.80
2006,09,24,00,42,9.80
2006,09,24,00,43,9.80
2006,09,24,00,44,9.80
2006,09,24,00,45,9.80
2006,09,24,00,46,9.80
2006,09,24,00,47,9.80
2006,09,24,00,48,9.70
2006,09,24,00,49,9.70
2006,09,24,00,50,9.70
2006,09,24,00,51,9.70
2006,09,24,00,52,9.70
2006,09,24,00,53,9.80
2006,09,24,00,54,9.80
2006,09,24,00,55,9.80
2006,09,24,00,56,9.80
2006,09,24,00,57,9.80
2006,09,24,00,58,9.80
2006,09,24,00,59,9.80
2006,09,24,01,00,9.80
2006,09,24,01,01,9.80
2006,09,24,01,02,9.80
2006,09,24,01,03,9.80
2006,09,24,01,04,9.80
2006,09,24,01,05,9.80
2006,09,24,01,06,9.80
2006,09,24,01,07,9.80
2006,09,24,01,08,9.80
2006,09,24,01,09,9.70
2006,09,24,01,10,9.70
2006,09,24,01,11,9.70
2006,09,24,01,12,9.70
2006,09,24,01,13,9.70
2006,09,24,01,14,9.70
2006,09,24,01,15,9.60
2006,09,24,01,16,9.60
2006,09,24,01,17,9.60
2006,09,24,01,18,9.60
2006,09,24,01,19,9.60
2006,09,24,01,20,9.60
2006,09,24,01,21,9.60
2006,09,24,01,22,9.60
2006,09,24,01,23,9.60
2006,09,24,01,24,9.60
2006,09,24,01,25,9.60
2006,09,24,01,26,9.60
2006,09,24,01,27,9.60
2006,09,24,01,28,9.60
2006,09,24,01,29,9.50
2006,09,24,01,30,9.50
2006,09,24,01,31,9.50
2006,09,24,01,32,9.50
2006,09,24,01,33,9.50
2006,09,24,01,34,9.50
2006,09,24,01,35,9.50
2006,09,24,01,36,9.50
2006,09,24,01,37,9.50
2006,09,24,01,38,9.60
2006,09,24,01,39,9.60
2006,09,24,01,40,9.60
2006,09,24,01,41,9.60
2006,09,24,01,42,9.60
2006,09,24,01,43,9.60
2006,09,24,01,44,9.60
2006,09,24,01,45,9.60
2006,09,24,01,46,9.60
2006,09,24,01,47,9.60
2006,09,24,01,48,9.50
2006,09,24,01,49,9.50
2006,09,24,01,50,9.50
2006,09,24,01,51,9.50
2006,09,24,01,52,9.50
2006,09,24,01,53,9.50
2006,09,24,01,54,9.50
2006,09,24,01,55,9.50
2006,09,24,01,56,9.50
2006,09,24,01,57,9.50
2006,09,24,01,58,9.50
2006,09,24,01,59,9.50
2006,09,24,02,00,9.40
2006,09,24,02,01,9.40
2006,09,24,02,02,9.40
2006,09,24,02,03,9.40
2006,09,24,02,04,9.40
2006,09,24,02,05,9.40
2006,09,24,02,06,9.40
2006,09,24,02,07,9.50
2006,09,24,02,08,9.40
2006,09,24,02,09,9.40
2006,09,24,02,10,9.40
2006,09,24,02,11,9.40
2006,09,24,02,12,9.40
2006,09,24,02,13,9.40
2006,09,24,02,14,9.40
2006,09,24,02,15,9.40
2006,09,24,02,16,9.40
2006,09,24,02,17,9.40
2006,09,24,02,18,9.40
2006,09,24,02,19,9.50
2006,09,24,02,20,9.50
2006,09,24,02,21,9.50
2006,09,24,02,22,9.50
2006,09,24,02,23,9.50
2006,09,24,02,24,9.50
2006,09,24,02,25,9.40
2006,09,24,02,26,9.40
2006,09,24,02,27,9.40
2006,09,24,02,28,9.40
2006,09,24,02,29,9.40
2006,09,24,02,30,9.40
2006,09,24,02,31,9.40
2006,09,24,02,32,9.40
2006,09,24,02,33,9.40
2006,09,24,02,34,9.40
2006,09,24,02,35,9.40
2006,09,24,02,36,9.40
2006,09,24,02,37,9.40
2006,09,24,02,38,9.40
2006,09,24,02,39,9.40
2006,09,24,02,40,9.40
2006,09,24,02,41,9.40
2006,09,24,02,42,9.40
2006,09,24,02,43,9.30
2006,09,24,02,44,9.30
2006,09,24,02,45,9.30
2006,09,24,02,46,9.30
2006,09,24,02,47,9.30
2006,09,24,02,48,9.30
2006,09,24,02,49,9.30
2006,09,24,02,50,9.30
2006,09,24,02,51,9.30
2006,09,24,02,52,9.30
2006,09,24,02,53,9.30
2006,09,24,02,54,9.30
2006,09,24,02,55,9.30
2006,09,24,02,56,9.20
2006,09,24,02,57,9.20
2006,09,24,02,58,9.20
2006,09,24,02,59,9.20
2006,09,24,03,00,9.20
2006,09,24,03,01,9.30
2006,09,24,03,02,9.30
2006,09,24,03,03,9.30
2006,09,24,03,04,9.30
2006,09,24,03,05,9.30
2006,09,24,03,06,9.30
2006,09,24,03,07,9.30
2006,09,24,03,08,9.30
2006,09,24,03,09,9.30
2006,09,24,03,10,9.30
2006,09,24,03,11,9.30
2006,09,24,03,12,9.30
2006,09,24,03,13,9.20
2006,09,24,03,14,9.20
2006,09,24,03,15,9.20
2006,09,24,03,16,9.20
2006,09,24,03,17,9.20
2006,09,24,03,18,9.20
2006,09,24,03,19,9.20
2006,09,24,03,20,9.20
2006,09,24,03,21,9.20
2006,09,24,03,22,9.20
2006,09,24,03,23,9.20
2006,09,24,03,24,9.20
2006,09,24,03,25,9.20
2006,09,24,03,26,9.20
2006,09,24,03,27,9.20
2006,09,24,03,28,9.20
2006,09,24,03,29,9.20
2006,09,24,03,30,9.20
2006,09,24,03,31,9.20
2006,09,24,03,32,9.20
2006,09,24,03,33,9.20
2006,09,24,03,34,9.20
2006,09,24,03,35,9.20
2006,09,24,03,36,9.20
2006,09,24,03,37,9.20
2006,09,24,03,38,9.20
2006,09,24,03,39,9.20
2006,09,24,03,40,9.20
2006,09,24,03,41,9.20
2006,09,24,03,42,9.20
2006,09,24,03,43,9.20
2006,09,24,03,44,9.20
2006,09,24,03,45,9.20
2006,09,24,03,46,9.20
2006,09,24,03,47,9.20
2006,09,24,03,48,9.20
2006,09,24,03,49,9.20
2006,09,24,03,50,9.20
2006,09,24,03,51,9.20
2006,09,24,03,52,9.20
2006,09,24,03,53,9.20
2006,09,24,03,54,9.20
2006,09,24,03,55,9.20
2006,09,24,03,56,9.20
2006,09,24,03,57,9.20
2006,09,24,03,58,9.20
2006,09,24,03,59,9.10
2006,09,24,04,00,9.10
2006,09,24,04,01,9.10
2006,09,24,04,02,9.10
2006,09,24,04,03,9.00
2006,09,24,04,04,9.00
2006,09,24,04,05,9.00
2006,09,24,04,06,9.00
2006,09,24,04,07,9.00
2006,09,24,04,08,9.00
2006,09,24,04,09,9.00
2006,09,24,04,10,9.00
2006,09,24,04,11,9.00
2006,09,24,04,12,9.00
2006,09,24,04,13,9.00
2006,09,24,04,14,9.00
2006,09,24,04,15,9.00
2006,09,24,04,16,9.00
2006,09,24,04,17,9.00
2006,09,24,04,18,9.00
2006,09,24,04,19,9.00
2006,09,24,04,20,9.00
2006,09,24,04,21,9.10
2006,09,24,04,22,9.10
2006,09,24,04,23,9.10
2006,09,24,04,24,9.00
2006,09,24,04,25,9.00
2006,09,24,04,26,9.10
2006,09,24,04,27,9.10
2006,09,24,04,28,9.10
2006,09,24,04,29,9.10
2006,09,24,04,30,9.10
2006,09,24,04,31,9.10
2006,09,24,04,32,9.10
2006,09,24,04,33,9.00
2006,09,24,04,34,9.00
2006,09,24,04,35,9.00
2006,09,24,04,36,9.00
2006,09,24,04,37,9.00
2006,09,24,04,38,9.00
2006,09,24,04,39,9.00
2006,09,24,04,40,9.00
2006,09,24,04,41,9.00
2006,09,24,04,42,9.00
2006,09,24,04,43,9.00
2006,09,24,04,44,9.00
2006,09,24,04,45,9.00
2006,09,24,04,46,9.00
2006,09,24,04,47,8.90
2006,09,24,04,48,8.90
2006,09,24,04,49,8.90
2006,09,24,04,50,8.90
2006,09,24,04,51,8.80
2006,09,24,04,52,8.80
2006,09,24,04,53,8.80
2006,09,24,04,54,8.70
2006,09,24,04,55,8.70
2006,09,24,04,56,8.70
2006,09,24,04,57,8.70
2006,09,24,04,58,8.70
2006,09,24,04,59,8.70
2006,09,24,05,00,8.70
2006,09,24,05,01,8.70
2006,09,24,05,02,8.70
2006,09,24,05,03,8.70
2006,09,24,05,04,8.70
2006,09,24,05,05,8.70
2006,09,24,05,06,8.70
2006,09,24,05,07,8.70
2006,09,24,05,08,8.70
2006,09,24,05,09,8.70
2006,09,24,05,10,8.70
2006,09,24,05,11,8.70
2006,09,24,05,12,8.70
2006,09,24,05,13,8.70
2006,09,24,05,14,8.60
2006,09,24,05,15,8.60
2006,09,24,05,16,8.60
2006,09,24,05,17,8.60
2006,09,24,05,18,8.60
2006,09,24,05,19,8.50
2006,09,24,05,20,8.50
2006,09,24,05,21,8.50
2006,09,24,05,22,8.50
2006,09,24,05,23,8.50
2006,09,24,05,24,8.50
2006,09,24,05,25,8.50
2006,09,24,05,26,8.50
2006,09,24,05,27,8.50
2006,09,24,05,28,8.50
2006,09,24,05,29,8.50
2006,09,24,05,30,8.50
2006,09,24,05,31,8.50
2006,09,24,05,32,8.50
2006,09,24,05,33,8.50
2006,09,24,05,34,8.40
2006,09,24,05,35,8.40
2006,09,24,05,36,8.40
2006,09,24,05,37,8.30
2006,09,24,05,38,8.30
2006,09,24,05,39,8.30
2006,09,24,05,40,8.30
2006,09,24,05,41,8.30
2006,09,24,05,42,8.30
2006,09,24,05,43,8.30
2006,09,24,05,44,8.30
2006,09,24,05,45,8.30
2006,09,24,05,46,8.20
2006,09,24,05,47,8.30
2006,09,24,05,48,8.30
2006,09,24,05,49,8.40
2006,09,24,05,50,8.40
2006,09,24,05,51,8.40
2006,09,24,05,52,8.40
2006,09,24,05,53,8.50
2006,09,24,05,54,8.50
2006,09,24,05,55,8.50
2006,09,24,05,56,8.50
2006,09,24,05,57,8.50
2006,09,24,05,58,8.60
2006,09,24,05,59,8.60
2006,09,24,06,00,8.60
2006,09,24,06,01,8.60
2006,09,24,06,02,8.60
2006,09,24,06,03,8.60
2006,09,24,06,04,8.60
2006,09,24,06,05,8.60
2006,09,24,06,06,8.60
2006,09,24,06,07,8.60
2006,09,24,06,08,8.60
2006,09,24,06,09,8.60
2006,09,24,06,10,8.60
2006,09,24,06,11,8.60
2006,09,24,06,12,8.60
2006,09,24,06,13,8.60
2006,09,24,06,14,8.60
2006,09,24,06,15,8.70
2006,09,24,06,16,8.70
2006,09,24,06,17,8.70
2006,09,24,06,18,8.70
2006,09,24,06,19,8.70
2006,09,24,06,20,8.70
2006,09,24,06,21,8.70
2006,09,24,06,22,8.70
2006,09,24,06,23,8.60
2006,09,24,06,24,8.50
2006,09,24,06,25,8.50
2006,09,24,06,26,8.50
2006,09,24,06,27,8.50
2006,09,24,06,28,8.50
2006,09,24,06,29,8.50
2006,09,24,06,30,8.50
2006,09,24,06,31,8.50
2006,09,24,06,32,8.50
2006,09,24,06,33,8.50
2006,09,24,06,34,8.50
2006,09,24,06,35,8.50
2006,09,24,06,36,8.50
2006,09,24,06,37,8.50
2006,09,24,06,38,8.50
2006,09,24,06,39,8.50
2006,09,24,06,40,8.50
2006,09,24,06,41,8.40
2006,09,24,06,42,8.40
2006,09,24,06,43,8.40
2006,09,24,06,44,8.50
2006,09,24,06,45,8.50
2006,09,24,06,46,8.50
2006,09,24,06,47,8.50
2006,09,24,06,48,8.50
2006,09,24,06,49,8.50
2006,09,24,06,50,8.50
2006,09,24,06,51,8.60
2006,09,24,06,52,8.70
2006,09,24,06,53,8.70
2006,09,24,06,54,8.80
2006,09,24,06,55,8.80
2006,09,24,06,56,8.80
2006,09,24,06,57,8.90
2006,09,24,06,58,8.90
2006,09,24,06,59,9.00
2006,09,24,07,00,9.00
2006,09,24,07,01,9.00
2006,09,24,07,02,9.10
2006,09,24,07,03,9.20
2006,09,24,07,04,9.20
2006,09,24,07,05,9.20
2006,09,24,07,06,9.30
2006,09,24,07,07,9.30
2006,09,24,07,08,9.30
2006,09,24,07,09,9.30
2006,09,24,07,10,9.30
2006,09,24,07,11,9.30
2006,09,24,07,12,9.30
2006,09,24,07,13,9.30
2006,09,24,07,14,9.30
2006,09,24,07,15,9.30
2006,09,24,07,16,9.20
2006,09,24,07,17,9.20
2006,09,24,07,18,9.30
2006,09,24,07,19,9.30
2006,09,24,07,20,9.30
2006,09,24,07,21,9.30
2006,09,24,07,22,9.30
2006,09,24,07,23,9.40
2006,09,24,07,24,9.50
2006,09,24,07,25,9.60
2006,09,24,07,26,9.60
2006,09,24,07,27,9.60
2006,09,24,07,28,9.70
2006,09,24,07,29,9.70
2006,09,24,07,30,9.70
2006,09,24,07,31,9.70
2006,09,24,07,32,9.70
2006,09,24,07,33,9.60
2006,09,24,07,34,9.60
2006,09,24,07,35,9.50
2006,09,24,07,36,9.50
2006,09,24,07,37,9.50
2006,09,24,07,38,9.50
2006,09,24,07,39,9.50
2006,09,24,07,40,9.50
2006,09,24,07,41,9.60
2006,09,24,07,42,9.60
2006,09,24,07,43,9.60
2006,09,24,07,44,9.70
2006,09,24,07,45,9.70
2006,09,24,07,46,9.70
2006,09,24,07,47,9.70
2006,09,24,07,48,9.80
2006,09,24,07,49,9.80
2006,09,24,07,50,9.90
2006,09,24,07,51,10.00
2006,09,24,07,52,10.10
2006,09,24,07,53,10.20
2006,09,24,07,54,10.30
2006,09,24,07,55,10.40
2006,09,24,07,56,10.40
2006,09,24,07,57,10.50
2006,09,24,07,58,10.40
2006,09,24,07,59,10.50
2006,09,24,08,00,10.60
2006,09,24,08,01,10.60
2006,09,24,08,02,10.60
2006,09,24,08,03,10.60
2006,09,24,08,04,10.60
2006,09,24,08,05,10.60
2006,09,24,08,06,10.60
2006,09,24,08,07,10.60
2006,09,24,08,08,10.60
2006,09,24,08,09,10.60
2006,09,24,08,10,10.60
2006,09,24,08,11,10.70
2006,09,24,08,12,10.70
2006,09,24,08,13,10.70
2006,09,24,08,14,10.90
2006,09,24,08,15,10.90
2006,09,24,08,16,10.90
2006,09,24,08,17,11.00
2006,09,24,08,18,11.10
2006,09,24,08,19,11.10
2006,09,24,08,20,11.20
2006,09,24,08,21,11.30
2006,09,24,08,22,11.30
2006,09,24,08,23,11.40
2006,09,24,08,24,11.40
2006,09,24,08,25,11.50
2006,09,24,08,26,11.60
2006,09,24,08,27,11.60
2006,09,24,08,28,11.60
2006,09,24,08,29,11.60
2006,09,24,08,30,11.70
2006,09,24,08,31,11.70
2006,09,24,08,32,11.70
2006,09,24,08,33,11.70
2006,09,24,08,34,11.80
2006,09,24,08,35,11.80
2006,09,24,08,36,11.80
2006,09,24,08,37,11.90
2006,09,24,08,38,11.90
2006,09,24,08,39,11.90
2006,09,24,08,40,12.00
2006,09,24,08,41,12.00
2006,09,24,08,42,12.10
2006,09,24,08,43,12.10
2006,09,24,08,44,12.20
2006,09,24,08,45,12.20
2006,09,24,08,46,12.20
2006,09,24,08,47,12.30
2006,09,24,08,48,12.30
2006,09,24,08,49,12.30
2006,09,24,08,50,12.40
2006,09,24,08,51,12.40
2006,09,24,08,52,12.50
2006,09,24,08,53,12.50
2006,09,24,08,54,12.60
2006,09,24,08,55,12.60
2006,09,24,08,56,12.70
2006,09,24,08,57,12.80
2006,09,24,08,58,12.80
2006,09,24,08,59,12.80
2006,09,24,09,00,12.90
2006,09,24,09,01,12.90
2006,09,24,09,02,12.90
2006,09,24,09,03,13.00
2006,09,24,09,04,13.00
2006,09,24,09,05,13.10
2006,09,24,09,06,13.10
2006,09,24,09,07,13.20
2006,09,24,09,08,13.20
2006,09,24,09,09,13.30
2006,09,24,09,10,13.30
2006,09,24,09,11,13.30
2006,09,24,09,12,13.30
2006,09,24,09,13,13.30
2006,09,24,09,14,13.30
2006,09,24,09,15,13.40
2006,09,24,09,16,13.40
2006,09,24,09,17,13.40
2006,09,24,09,18,13.40
2006,09,24,09,19,13.50
2006,09,24,09,20,13.50
2006,09,24,09,21,13.50
2006,09,24,09,22,13.60
2006,09,24,09,23,13.60
2006,09,24,09,24,13.60
2006,09,24,09,25,13.70
2006,09,24,09,26,13.70
2006,09,24,09,27,13.70
2006,09,24,09,28,13.70
2006,09,24,09,29,13.80
2006,09,24,09,30,13.90
2006,09,24,09,31,13.90
2006,09,24,09,32,13.90
2006,09,24,09,33,13.90
2006,09,24,09,34,13.90
2006,09,24,09,35,13.90
2006,09,24,09,36,13.90
2006,09,24,09,37,13.90
2006,09,24,09,38,13.90
2006,09,24,09,39,13.90
2006,09,24,09,40,14.00
2006,09,24,09,41,14.00
2006,09,24,09,42,14.00
2006,09,24,09,43,14.10
2006,09,24,09,44,14.10
2006,09,24,09,45,14.20
2006,09,24,09,46,14.20
2006,09,24,09,47,14.30
2006,09,24,09,48,14.40
2006,09,24,09,49,14.50
2006,09,24,09,50,14.50
2006,09,24,09,51,14.60
2006,09,24,09,52,14.70
2006,09,24,09,53,14.80
2006,09,24,09,54,14.80
2006,09,24,09,55,14.90
2006,09,24,09,56,15.00
2006,09,24,09,57,15.00
2006,09,24,09,58,15.10
2006,09,24,09,59,15.10
2006,09,24,10,00,15.30
2006,09,24,10,01,15.30
2006,09,24,10,02,15.30
2006,09,24,10,03,15.30
2006,09,24,10,04,15.30
2006,09,24,10,05,15.30
2006,09,24,10,06,15.30
2006,09,24,10,07,15.30
2006,09,24,10,08,15.30
2006,09,24,10,09,15.30
2006,09,24,10,10,15.40
2006,09,24,10,11,15.40
2006,09,24,10,12,15.40
2006,09,24,10,13,15.40
2006,09,24,10,14,15.40
2006,09,24,10,15,15.30
2006,09,24,10,16,15.30
2006,09,24,10,17,15.30
2006,09,24,10,18,15.30
2006,09,24,10,19,15.30
2006,09,24,10,20,15.40
2006,09,24,10,21,15.40
2006,09,24,10,22,15.50
2006,09,24,10,23,15.50
2006,09,24,10,24,15.60
2006,09,24,10,25,15.60
2006,09,24,10,26,15.70
2006,09,24,10,27,15.80
2006,09,24,10,28,15.80
2006,09,24,10,29,15.80
2006,09,24,10,30,15.90
2006,09,24,10,31,15.90
2006,09,24,10,32,16.00
2006,09,24,10,33,16.10
2006,09,24,10,34,16.10
2006,09,24,10,35,16.20
2006,09,24,10,36,16.30
2006,09,24,10,37,16.40
2006,09,24,10,38,16.40
2006,09,24,10,39,16.40
2006,09,24,10,40,16.50
2006,09,24,10,41,16.60
2006,09,24,10,42,16.60
2006,09,24,10,43,16.70
2006,09,24,10,44,16.70
2006,09,24,10,45,16.70
2006,09,24,10,46,16.70
2006,09,24,10,47,16.70
2006,09,24,10,48,16.80
2006,09,24,10,49,16.80
2006,09,24,10,50,16.80
2006,09,24,10,51,16.80
2006,09,24,10,52,16.80
2006,09,24,10,53,16.80
2006,09,24,10,54,16.90
2006,09,24,10,55,16.90
2006,09,24,10,56,17.00
2006,09,24,10,57,17.00
2006,09,24,10,58,17.00
2006,09,24,10,59,17.10
2006,09,24,11,00,17.10
2006,09,24,11,01,17.20
2006,09,24,11,02,17.20
2006,09,24,11,03,17.20
2006,09,24,11,04,17.30
2006,09,24,11,05,17.40
2006,09,24,11,06,17.40
2006,09,24,11,07,17.40
2006,09,24,11,08,17.50
2006,09,24,11,09,17.50
2006,09,24,11,10,17.60
2006,09,24,11,11,17.70
2006,09,24,11,12,17.80
2006,09,24,11,13,17.80
2006,09,24,11,14,17.90
2006,09,24,11,15,17.90
2006,09,24,11,16,17.90
2006,09,24,11,17,17.90
2006,09,24,11,18,17.90
2006,09,24,11,19,17.90
2006,09,24,11,20,17.90
2006,09,24,11,21,18.00
2006,09,24,11,22,18.10
2006,09,24,11,23,18.10
2006,09,24,11,24,18.10
2006,09,24,11,25,18.10
2006,09,24,11,26,18.10
2006,09,24,11,27,18.10
2006,09,24,11,28,18.10
2006,09,24,11,29,18.10
2006,09,24,11,30,18.10
2006,09,24,11,31,18.20
2006,09,24,11,32,18.20
2006,09,24,11,33,18.20
2006,09,24,11,34,18.30
2006,09,24,11,35,18.30
2006,09,24,11,36,18.30
2006,09,24,11,37,18.40
2006,09,24,11,38,18.40
2006,09,24,11,39,18.50
2006,09,24,11,40,18.50
2006,09,24,11,41,18.50
2006,09,24,11,42,18.50
2006,09,24,11,43,18.50
2006,09,24,11,44,18.60
2006,09,24,11,45,18.70
2006,09,24,11,46,18.70
2006,09,24,11,47,18.90
2006,09,24,11,48,18.90
2006,09,24,11,49,18.90
2006,09,24,11,50,18.90
2006,09,24,11,51,18.90
2006,09,24,11,52,18.90
2006,09,24,11,53,19.00
2006,09,24,11,54,19.10
2006,09,24,11,55,19.10
2006,09,24,11,56,19.20
2006,09,24,11,57,19.10
2006,09,24,11,58,19.10
2006,09,24,11,59,19.10
2006,09,24,12,00,19.10
2006,09,24,12,01,19.20
2006,09,24,12,02,19.20
2006,09,24,12,03,19.20
2006,09,24,12,04,19.20
2006,09,24,12,05,19.20
2006,09,24,12,06,19.30
2006,09,24,12,07,19.30
2006,09,24,12,08,19.40
2006,09,24,12,09,19.40
2006,09,24,12,10,19.40
2006,09,24,12,11,19.40
2006,09,24,12,12,19.60
2006,09,24,12,13,19.60
2006,09,24,12,14,19.70
2006,09,24,12,15,19.70
2006,09,24,12,16,19.80
2006,09,24,12,17,19.80
2006,09,24,12,18,19.90
2006,09,24,12,19,19.90
2006,09,24,12,20,19.90
2006,09,24,12,21,20.00
2006,09,24,12,22,20.10
2006,09,24,12,23,20.10
2006,09,24,12,24,20.10
2006,09,24,12,25,20.10
2006,09,24,12,26,20.10
2006,09,24,12,27,20.10
2006,09,24,12,28,20.10
2006,09,24,12,29,20.10
2006,09,24,12,30,20.10
2006,09,24,12,31,20.20
2006,09,24,12,32,20.20
2006,09,24,12,33,20.20
2006,09,24,12,34,20.20
2006,09,24,12,35,20.20
2006,09,24,12,36,20.20
2006,09,24,12,37,20.20
2006,09,24,12,38,20.30
2006,09,24,12,39,20.50
2006,09,24,12,40,20.50
2006,09,24,12,41,20.60
2006,09,24,12,42,20.60
2006,09,24,12,43,20.60
2006,09,24,12,44,20.60
2006,09,24,12,45,20.60
2006,09,24,12,46,20.60
2006,09,24,12,47,20.70
2006,09,24,12,48,20.70
2006,09,24,12,49,20.70
2006,09,24,12,50,20.70
2006,09,24,12,51,20.60
2006,09,24,12,52,20.70
2006,09,24,12,53,20.70
2006,09,24,12,54,20.80
2006,09,24,12,55,20.80
2006,09,24,12,56,20.70
2006,09,24,12,57,20.80
2006,09,24,12,58,20.80
2006,09,24,12,59,20.90
2006,09,24,13,00,21.00
2006,09,24,13,01,21.00
2006,09,24,13,02,21.00
2006,09,24,13,03,21.10
2006,09,24,13,04,21.10
2006,09,24,13,05,21.10
2006,09,24,13,06,21.10
2006,09,24,13,07,21.10
2006,09,24,13,08,21.10
2006,09,24,13,09,21.10
2006,09,24,13,10,21.10
2006,09,24,13,11,21.10
2006,09,24,13,12,21.10
2006,09,24,13,13,21.20
2006,09,24,13,14,21.30
2006,09,24,13,15,21.30
2006,09,24,13,16,21.30
2006,09,24,13,17,21.40
2006,09,24,13,18,21.40
2006,09,24,13,19,21.40
2006,09,24,13,20,21.40
2006,09,24,13,21,21.40
2006,09,24,13,22,21.40
2006,09,24,13,23,21.40
2006,09,24,13,24,21.60
2006,09,24,13,25,21.60
2006,09,24,13,26,21.60
2006,09,24,13,27,21.70
2006,09,24,13,28,21.70
2006,09,24,13,29,21.70
2006,09,24,13,30,21.80
2006,09,24,13,31,21.80
2006,09,24,13,32,21.80
2006,09,24,13,33,21.80
2006,09,24,13,34,21.80
2006,09,24,13,35,21.80
2006,09,24,13,36,21.70
2006,09,24,13,37,21.60
2006,09,24,13,38,21.60
2006,09,24,13,39,21.60
2006,09,24,13,40,21.60
2006,09,24,13,41,21.60
2006,09,24,13,42,21.60
2006,09,24,13,43,21.60
2006,09,24,13,44,21.70
2006,09,24,13,45,21.70
2006,09,24,13,46,21.80
2006,09,24,13,47,21.80
2006,09,24,13,48,21.80
2006,09,24,13,49,21.80
2006,09,24,13,50,21.90
2006,09,24,13,51,21.90
2006,09,24,13,52,21.90
2006,09,24,13,53,21.90
2006,09,24,13,54,21.90
2006,09,24,13,55,22.00
2006,09,24,13,56,22.00
2006,09,24,13,57,22.00
2006,09,24,13,58,22.10
2006,09,24,13,59,22.10
2006,09,24,14,00,22.20
2006,09,24,14,01,22.20
2006,09,24,14,02,22.30
2006,09,24,14,03,22.30
2006,09,24,14,04,22.20
2006,09,24,14,05,22.20
2006,09,24,14,06,22.20
2006,09,24,14,07,22.20
2006,09,24,14,08,22.30
2006,09,24,14,09,22.30
2006,09,24,14,10,22.40
2006,09,24,14,11,22.50
2006,09,24,14,12,22.50
2006,09,24,14,13,22.50
2006,09,24,14,14,22.50
2006,09,24,14,15,22.50
2006,09,24,14,16,22.50
2006,09,24,14,17,22.50
2006,09,24,14,18,22.50
2006,09,24,14,19,22.40
2006,09,24,14,20,22.30
2006,09,24,14,21,22.30
2006,09,24,14,22,22.20
2006,09,24,14,23,22.10
2006,09,24,14,24,22.10
2006,09,24,14,25,22.00
2006,09,24,14,26,22.10
2006,09,24,14,27,22.10
2006,09,24,14,28,22.20
2006,09,24,14,29,22.10
2006,09,24,14,30,22.00
2006,09,24,14,31,22.00
2006,09,24,14,32,22.00
2006,09,24,14,33,22.00
2006,09,24,14,34,22.00
2006,09,24,14,35,22.00
2006,09,24,14,36,22.00
2006,09,24,14,37,22.10
2006,09,24,14,38,22.10
2006,09,24,14,39,22.20
2006,09,24,14,40,22.30
2006,09,24,14,41,22.40
2006,09,24,14,42,22.40
2006,09,24,14,43,22.50
2006,09,24,14,44,22.60
2006,09,24,14,45,22.60
2006,09,24,14,46,22.60
2006,09,24,14,47,22.60
2006,09,24,14,48,22.60
2006,09,24,14,49,22.50
2006,09,24,14,50,22.50
2006,09,24,14,51,22.40
2006,09,24,14,52,22.50
2006,09,24,14,53,22.60
2006,09,24,14,54,22.70
2006,09,24,14,55,22.70
2006,09,24,14,56,22.70
2006,09,24,14,57,22.80
2006,09,24,14,58,22.90
2006,09,24,14,59,22.90
2006,09,24,15,00,22.90
2006,09,24,15,01,22.90
2006,09,24,15,02,23.00
2006,09,24,15,03,23.00
2006,09,24,15,04,22.90
2006,09,24,15,05,22.90
2006,09,24,15,06,22.90
2006,09,24,15,07,22.90
2006,09,24,15,08,22.80
2006,09,24,15,09,22.80
2006,09,24,15,10,22.80
2006,09,24,15,11,22.70
2006,09,24,15,12,22.80
2006,09,24,15,13,22.80
2006,09,24,15,14,22.80
2006,09,24,15,15,22.90
2006,09,24,15,16,22.90
2006,09,24,15,17,22.70
2006,09,24,15,18,22.50
2006,09,24,15,19,22.40
2006,09,24,15,20,22.30
2006,09,24,15,21,22.20
2006,09,24,15,22,22.20
2006,09,24,15,23,22.30
2006,09,24,15,24,22.40
2006,09,24,15,25,22.50
2006,09,24,15,26,22.70
2006,09,24,15,27,22.90
2006,09,24,15,28,22.90
2006,09,24,15,29,22.90
2006,09,24,15,30,22.90
2006,09,24,15,31,23.00
2006,09,24,15,32,23.10
2006,09,24,15,33,23.20
2006,09,24,15,34,23.30
2006,09,24,15,35,23.40
2006,09,24,15,36,23.40
2006,09,24,15,37,23.40
2006,09,24,15,38,23.40
2006,09,24,15,39,23.40
2006,09,24,15,40,23.40
2006,09,24,15,41,23.40
2006,09,24,15,42,23.40
2006,09,24,15,43,23.30
2006,09,24,15,44,23.30
2006,09,24,15,45,23.30
2006,09,24,15,46,23.20
2006,09,24,15,47,23.20
2006,09,24,15,48,23.20
2006,09,24,15,49,23.20
2006,09,24,15,50,23.20
2006,09,24,15,51,23.20
2006,09,24,15,52,23.30
2006,09,24,15,53,23.30
2006,09,24,15,54,23.30
2006,09,24,15,55,23.30
2006,09,24,15,56,23.30
2006,09,24,15,57,23.30
2006,09,24,15,58,23.30
2006,09,24,15,59,23.30
2006,09,24,16,00,23.30
2006,09,24,16,01,23.30
2006,09,24,16,02,23.30
2006,09,24,16,03,23.20
2006,09,24,16,04,23.10
2006,09,24,16,05,23.00
2006,09,24,16,06,22.90
2006,09,24,16,07,22.90
2006,09,24,16,08,22.70
2006,09,24,16,09,22.60
2006,09,24,16,10,22.50
2006,09,24,16,11,22.50
2006,09,24,16,12,22.50
2006,09,24,16,13,22.50
2006,09,24,16,14,22.50
2006,09,24,16,15,22.40
2006,09,24,16,16,22.50
2006,09,24,16,17,22.50
2006,09,24,16,18,22.50
2006,09,24,16,19,22.50
2006,09,24,16,20,22.40
2006,09,24,16,21,22.30
2006,09,24,16,22,22.30
2006,09,24,16,23,22.30
2006,09,24,16,24,22.30
2006,09,24,16,25,22.30
2006,09,24,16,26,22.30
2006,09,24,16,27,22.40
2006,09,24,16,28,22.40
2006,09,24,16,29,22.40
2006,09,24,16,30,22.50
2006,09,24,16,31,22.60
2006,09,24,16,32,22.70
2006,09,24,16,33,22.70
2006,09,24,16,34,22.80
2006,09,24,16,35,22.80
2006,09,24,16,36,22.80
2006,09,24,16,37,22.90
2006,09,24,16,38,22.90
2006,09,24,16,39,22.90
2006,09,24,16,40,22.90
2006,09,24,16,41,22.90
2006,09,24,16,42,22.90
2006,09,24,16,43,22.90
2006,09,24,16,44,22.80
2006,09,24,16,45,22.70
2006,09,24,16,46,22.60
2006,09,24,16,47,22.60
2006,09,24,16,48,22.60
2006,09,24,16,49,22.50
2006,09,24,16,50,22.50
2006,09,24,16,51,22.50
2006,09,24,16,52,22.50
2006,09,24,16,53,22.50
2006,09,24,16,54,22.50
2006,09,24,16,55,22.60
2006,09,24,16,56,22.60
2006,09,24,16,57,22.60
2006,09,24,16,58,22.70
2006,09,24,16,59,22.80
2006,09,24,17,00,22.90
2006,09,24,17,01,22.90
2006,09,24,17,02,23.10
2006,09,24,17,03,23.10
2006,09,24,17,04,23.20
2006,09,24,17,05,23.30
2006,09,24,17,06,23.30
2006,09,24,17,07,23.30
2006,09,24,17,08,23.20
2006,09,24,17,09,23.20
2006,09,24,17,10,23.10
2006,09,24,17,11,23.10
2006,09,24,17,12,22.90
2006,09,24,17,13,22.90
2006,09,24,17,14,22.80
2006,09,24,17,15,22.70
2006,09,24,17,16,22.60
2006,09,24,17,17,22.60
2006,09,24,17,18,22.60
2006,09,24,17,19,22.50
2006,09,24,17,20,22.50
2006,09,24,17,21,22.60
2006,09,24,17,22,22.60
2006,09,24,17,23,22.70
2006,09,24,17,24,22.70
2006,09,24,17,25,22.70
2006,09,24,17,26,22.60
2006,09,24,17,27,22.60
2006,09,24,17,28,22.60
2006,09,24,17,29,22.50
2006,09,24,17,30,22.50
2006,09,24,17,31,22.60
2006,09,24,17,32,22.60
2006,09,24,17,33,22.60
2006,09,24,17,34,22.50
2006,09,24,17,35,22.50
2006,09,24,17,36,22.50
2006,09,24,17,37,22.50
2006,09,24,17,38,22.50
2006,09,24,17,39,22.60